Location: Nianha
(10.8000°N, 4.6333°W)
Time: 06:28:48
(UTC+00:00)

SJ 16-02 - Pass Details

Date: 14 November 2019
Orbit: 605 x 617 km, 75.0° (Epoch: 23 January)

Event Time Altitude Azimuth Distance (km) Brightness Sun altitude
Rises 04:14:38 0° 177° (S) 2,868 5.0 -28.9°
Reaches altitude 10° 04:17:00 10° 169° (S) 1,961 4.2 -28.3°
Maximum altitude 04:21:04 38° 100° (E) 925 2.7 -27.4°
Drops below altitude 10° 04:25:07 10° 32° (NNE) 1,953 4.1 -26.4°
Sets 04:27:27 0° 24° (NNE) 2,855 4.9 -25.8°
